Overview Statistics Trail Chart Weather Telemetry Raw packets
 

This is the latest recevied weather packets stored in our database for station/object OE3CJB-13. If no packets are shown the sender has not sent any weather packets the latest 10 day(s).

<< 25 26 27 28 29 30 31 >>
Time Temp. Humidity Pressure Rain* Wind** Luminosity Snow
1788115531 22.22° C 50% 1189.7 hPa 0 mm - - -
1788114630 22.78° C 49% 1189.6 hPa 0 mm - - -
1788113756 23.33° C 48% 1189.3 hPa 0 mm - - -
1788112868 23.89° C 46% 1188.5 hPa 0 mm - - -
1788111965 25° C 43% 1188.5 hPa 0 mm - - -
1788111020 26.11° C 40% 1188.3 hPa 0 mm - - -
1788110156 26.67° C 33% 1185.9 hPa 0 mm - - -
1788109268 27.22° C 30% 1185.2 hPa 0 mm - - -
1788108333 28.33° C 24% 1184.5 hPa 0 mm - - -
1788107419 28.89° C 22% 1182.2 hPa 0 mm - - -
1788106561 29.44° C 20% 1180.1 hPa 0 mm - - -
1788105648 30° C 19% 1178.6 hPa 0 mm - - -
1788104732 30.56° C 19% 1180.2 hPa 0 mm - - -
1788103819 30.56° C 18% 1180.2 hPa 0 mm - - -
1788102956 31.11° C 18% 1180.4 hPa 0 mm - - -
1788102067 31.11° C 19% 1181.1 hPa 0 mm - - -
1788101131 31.11° C 20% 1182.8 hPa 0 mm - - -
1788100219 31.11° C 20% 1184.2 hPa 0 mm - - -
1788099356 31.67° C 21% 1185.1 hPa 0 mm - - -
1788098447 31.11° C 23% 1186.7 hPa 0 mm - - -
1788097531 30.56° C 24% 1188.5 hPa 0 mm - - -
1788096621 29.44° C 26% 1187.7 hPa 0 mm - - -
1788095760 30° C 27% 1187.1 hPa 0 mm - - -
1788094845 30° C 26% 1188.1 hPa 0 mm - - -
1788093933 29.44° C 29% 1188.2 hPa 0 mm - - -

* Rain latest hour (hover to see other rain measurements)
** Current wind speed in m/s (hover to see current wind gust speed)